Regional Weather Roundup
Issued by NWS

Home | Current Version | Previous Version | Text Only | Print | Product List | Glossary Off
Versions: 1 2 3 4 5 6 7 8 9 10 11 12 13 14 15 16 17 18 19 20 21 22 23 24 25 26 27

000
ASUS45 KBOU 151310
RWRCO

WEATHER ROUNDUP FOR COLORADO
NATIONAL WEATHER SERVICE DENVER/BOULDER CO
600 AM MST MON JAN 15 2018

NOTE: "FAIR" INDICATES FEW OR NO CLOUDS BELOW 12000 FEET WITH NO
SIGNIFICANT WEATHER AND/OR OBSTRUCTIONS TO VISIBILITY.

COZ001>005-013-030-031-151400-
...NORTHWEST COLORADO...

CITY           SKY/WX    TMP DP  RH WIND       PRES   REMARKS
CRAIG          FAIR       9   5  84 CALM      30.30R
HAYDEN         FAIR      12   9  87 E8        30.29R WCI   0
MEEKER         FAIR      22  16  78 E8        30.28R WCI  12
RABBIT EARS PA CLOUDY    19  18  93 NW6       30.22S WCI  11
STEAMBOAT SPGS FAIR       5   3  89 CALM      30.27R
WALDEN         CLOUDY    19  14  79 N6        30.24R WCI  11
$$

COZ006>008-011-151400-
...WEST CENTRAL VALLEYS...

CITY           SKY/WX    TMP DP  RH WIND       PRES   REMARKS
GRAND JUNCTION FAIR      21  19  92 CALM      30.28R
MONTROSE       FAIR      19  14  81 MISG      30.29S
EAGLE          FAIR      13   9  84 E5        30.32R WCI   5
RIFLE          FAIR      22  18  85 CALM      30.30R
DELTA          FAIR      20  17  87 CALM      30.29S
NUCLA          FAIR      23  16  74 SE3       30.31S
$$

COZ017>023-064>068-151400-
...SOUTHWEST COLORADO...

CITY           SKY/WX    TMP DP  RH WIND       PRES   REMARKS
DURANGO        FAIR      13  12  96 E5        30.24S WCI   5
CORTEZ         FAIR      20  16  84 E5        30.24F WCI  13
PAGOSA SPRINGS FAIR      20  17  88 CALM      30.24F
TELLURIDE      FAIR      24   2  39 SE7       30.28F WCI  16
WOLF CREEK PAS FAIR      25  -4  28 SW7       30.32S WCI  17
$$

COZ009-010-012-014-032>034-037-058>063-151400-
...CENTRAL COLORADO...

CITY           SKY/WX    TMP DP  RH WIND       PRES   REMARKS
ASPEN          FAIR      14   7  73 CALM      30.24R
BUENA VISTA    FAIR      16   2  55 W3        30.18S
COPPER MTN     NOT AVBL
BERTHOUD PASS  CLOUDY    12   1  62 NW38G52   30.16F WCI -11
COTTONWOOD PAS NOT AVBL
GUNNISON       FAIR       2  -1  88 CALM      30.30S
KREMMLING      NOT AVBL
LEADVILLE      FAIR      13   1  59 NE8       30.20S WCI   2
MONARCH PASS   FAIR      18   3  53 W38       30.30F WCI  -4
SALIDA         FAIR      24   8  50 SE6       30.27S WCI  17
SUNLIGHT       FAIR      19   7  58 W7        30.31R WCI  10
WILKERSON PASS FAIR      21  -6  30 NW5       30.21S WCI  15
$$

COZ069>075-151400-
...SAN LUIS VALLEY/SANGRE DE CRISTO MOUNTAINS...

CITY           SKY/WX    TMP DP  RH WIND       PRES   REMARKS
ALAMOSA        FAIR       3  -3  76 SW3       30.23S
DEL NORTE      FAIR      18  -4  38 W13       30.23S WCI   4
LA VETA PASS   FAIR      23  10  58 SW8         N/A  WCI  14
SAGUACHE       FAIR      16   3  57 NW8       30.22S WCI   5
$$

COZ035-036-038>040-151400-
...NORTHERN COLORADO FRONT RANGE...

CITY           SKY/WX    TMP DP  RH WIND       PRES   REMARKS
DENVER INTL AP FRZ DRZL  22  19  89 NE21      30.33R FOG     WCI   6
DMNS CITY PARK NOT AVBL
AURORA         FRZ DRZL  23  22  99 NE10      30.33R FOG     WCI  12
FRONT RANGE AP CLOUDY    24  22  93 NE17      30.34R FOG     WCI  11
ERIE MUNI ARPT MIX PCPN  26  24  93 NE8       30.42R WCI  17
BOULDER MUN AP MIX PCPN  27  25  93 E3        30.36R
CENTENNIAL     FRZ DRZL  23  23 100 E7        30.31R WCI  15
BROOMFIELD     MIX PCPN  27  25  93 NE10      30.35R WCI  17
FORT COLLINS   LGT SNOW  24  19  81 NE14      30.37R WCI  12
LONGMONT       FLURRIES  28  24  85 NE6       30.39R WCI  22
$$

COZ041-046-047-076>085-087-088-151400-
...PIKES PEAK/PALMER DIVIDE AND SOUTHERN FOOTHILLS...

CITY           SKY/WX    TMP DP  RH WIND       PRES   REMARKS
COLO. SPRINGS  MOCLDY    29  22  75 N14       30.27S WCI  18
A. F. ACADEMY  CLOUDY    27  22  81 N7        30.26R WCI  19
SCHRIEVER AFB  CLOUDY    24  23  96 NE12      30.28R WCI  13
CHEYENNE MTN   MOCLDY    24  22  90 CALM      30.20R
ELLICOTT         N/A    N/A N/A N/A NE14      30.26R
FALCON         CLOUDY    21  21  98 N14       30.27R FOG     WCI   8
FORT CARSON    CLOUDY    27  22  81 CALM      30.27R
LIMON          CLOUDY    22  19  89 N18G29    30.32R WCI   7
MONUMENT HILL  FOG       19  18  93 E7        30.28R VSB 1/2 WCI  10
CANON CITY     CLOUDY    32  25  74 E6        30.29R WCI  26
WALSENBURG     CLOUDY    28  25  86 E3        30.30S
TRINIDAD       CLOUDY    27  24  89 N8        30.30S WCI  19
$$

COZ042>045-048>051-090-091-151400-
...NORTHEAST COLORADO...

CITY           SKY/WX    TMP DP  RH WIND       PRES   REMARKS
GREELEY ARPT   FLURRIES  21  17  84 E9        30.40R WCI  11
AKRON          FLURRIES  20  15  81 NW18G26   30.37R WCI   5
BURLINGTON     CLOUDY    18   7  62 N18G26    30.36R WCI   2
WRAY           CLOUDY    19   3  49 N17       30.44R WCI   4
YUMA           CLOUDY    18  12  79 N10       30.40R WCI   6
STERLING       CLOUDY    21  16  79 NE8       30.41R WCI  12
HOLYOKE        FAIR      18   3  53 N14       30.43R WCI   4
FORT MORGAN    CLOUDY    19   6  57 N13       30.41R WCI   6
$$

COZ086-089-092>099-151400-
...SOUTHEAST COLORADO...

CITY           SKY/WX    TMP DP  RH WIND       PRES   REMARKS
PUEBLO         CLOUDY    28  22  78 CALM      30.33R
LA JUNTA       CLOUDY    30  24  78 NE6       30.35R WCI  24
LAMAR          CLOUDY    29  22  75 NE18      30.35R WCI  16
SPRINGFIELD      N/A     26  26 100 NE18G24   30.30R WCI  13
$$




USA.gov is the U.S. government's official web portal to all federal, state and local government web resources and services.